Flag for Finland Weather past 2 weeks in Kokkola, Finland

Now
46 °F

Sunny.


Feels Like: 44 °F
Forecast: 42 / 52 °F
Wind: 6 mph from Southwest

Location: Kruunupyy

Current Time: May 24, 2015 at 10:58:11 PM

Latest Report: May 24, 2015 at 10:20 PM


Visibility: 10 mi

Pressure: 29.80 "Hg

Humidity: 62%

Dew point: 34 °F

Location of KokkolaLocation

Historic Weather in Kokkola — Graph

°F

Kokkola temperature yesterday

Maximum temperature yesterday: 52 °F (at 12:20 AM)
Minimum temperature yesterday: 37 °F (at 1:50 PM)
Average temperature yesterday: 47 °F

Past Weeks' High & Low Weather Summary

 TemperatureHumidityPressure
High63 °F (May 22, 1:50 PM)100% (May 10, 9:20 PM)30.04 "Hg (May 10, 9:20 PM)
Low32 °F (May 19, 11:50 PM)36% (May 10, 12:20 PM)29.15 "Hg (May 13, 2:50 PM)
Average45 °F78%29.72 "Hg
* Reported May 9 9:20 PM — May 24 9:20 PM, Kokkola, Weather by CustomWeather, © 2015

Note: Actual official high and low records may vary slightly from our data, if they occured in-between our weather recording intervals... More about our weather records

Advertising

Kokkola weather history for previous 24 hours

 ConditionsComfort  
Time TempWeatherWind HumidityBarometerVisibility
9:20 PM
Sun, May 24
50 °FPassing clouds.10 mph50%29.80 "HgN/A
8:50 PM52 °FPassing clouds.10 mph50%29.80 "HgN/A
8:20 PM52 °FPassing clouds.12 mph50%29.80 "HgN/A
7:50 PM54 °FPassing clouds.10 mph47%29.80 "HgN/A
7:20 PM54 °FPassing clouds.12 mph47%29.80 "HgN/A
6:50 PM54 °FPassing clouds.12 mph47%29.80 "HgN/A
6:20 PM54 °FPassing clouds.14 mph41%29.80 "HgN/A
5:50 PM55 °FPassing clouds.14 mph38%29.80 "HgN/A
5:20 PM54 °FPassing clouds.14 mph44%29.80 "HgN/A
4:50 PM55 °FPassing clouds.13 mph44%29.80 "HgN/A
4:20 PM55 °FPassing clouds.13 mph41%29.80 "HgN/A
3:50 PM54 °FPassing clouds.12 mph44%29.80 "HgN/A
3:20 PM54 °FPassing clouds.14 mph44%29.80 "HgN/A
2:50 PM54 °FPassing clouds.12 mph44%29.77 "HgN/A
2:20 PM54 °FPassing clouds.14 mph44%29.77 "HgN/A
1:50 PM52 °FPassing clouds.14 mph50%29.77 "HgN/A
1:20 PM52 °FPassing clouds.15 mph47%29.77 "HgN/A
12:50 PM50 °FPassing clouds.16 mph50%29.77 "HgN/A
12:20 PM50 °FPassing clouds.14 mph54%29.77 "HgN/A
11:50 AM50 °FPassing clouds.15 mph54%29.74 "HgN/A
11:20 AM48 °FScattered clouds.13 mph58%29.74 "HgN/A
10:50 AM46 °FPassing clouds.12 mph66%29.74 "HgN/A
10:20 AM45 °FPassing clouds.10 mph66%29.74 "HgN/A
9:50 AM45 °FPartly sunny.12 mph71%29.71 "HgN/A
9:20 AM45 °FPassing clouds.13 mph66%29.71 "HgN/A
8:50 AM45 °FPassing clouds.14 mph66%29.71 "HgN/A
8:20 AM43 °FPassing clouds.13 mph71%29.71 "HgN/A
7:50 AM43 °FPassing clouds.12 mph71%29.68 "HgN/A
7:20 AM43 °FPassing clouds.13 mph71%29.68 "HgN/A
6:50 AM43 °FPassing clouds.10 mph71%29.68 "HgN/A
6:20 AM41 °FPassing clouds.9 mph76%29.68 "HgN/A
5:50 AM41 °FPassing clouds.12 mph76%29.68 "HgN/A
5:20 AM43 °FOvercast.12 mph66%29.68 "HgN/A
4:50 AM43 °FPassing clouds.13 mph66%29.68 "HgN/A
4:20 AM43 °FMostly cloudy.14 mph66%29.68 "HgN/A
3:50 AM43 °FPassing clouds.13 mph71%29.65 "HgN/A
3:20 AM45 °FOvercast.15 mph61%29.65 "HgN/A
2:50 AM45 °FPassing clouds.10 mph66%29.65 "HgN/A
2:20 AM45 °FOvercast.12 mph66%29.65 "HgN/A
1:50 AM45 °FPassing clouds.9 mph71%29.65 "HgN/A
1:20 AM45 °FMostly cloudy.10 mph71%29.65 "HgN/A
12:50 AM45 °FPartly cloudy.9 mph76%29.65 "HgN/A
12:20 AM45 °FPartly cloudy.12 mph76%29.65 "HgN/A
11:50 PM
Sat, May 23
46 °FPartly sunny.10 mph66%29.65 "HgN/A
11:20 PM46 °FPassing clouds.10 mph71%29.62 "HgN/A
10:50 PM46 °FPassing clouds.10 mph71%29.62 "HgN/A
10:20 PM46 °FPassing clouds.10 mph71%29.62 "HgN/A
Weather by CustomWeather, © 2015

See weather overviewHow to use our weather pages